FENGYUN 1C DEB, 30183

Orbit data source: Space-Track

FENGYUN 1C DEB, 30183 is space debris in SSO originally from a launch on Mon, 10 May 1999 UTC launched from the Taiyaun Space Center, China (TSC). Fengyun 1C debris stems from the Chinese weather satellite Fengyun-1C, which was intentionally destroyed by a Chinese anti-satellite missile in 2007. This event dramatically increased the amount of space debris, with thousands of trackable fragments posing hazards to satellites and human spaceflight. The Fengyun 1C debris cloud has become a focal point in discussions about space sustainability and the need for international regulations to prevent the creation of new debris.

Loading next visibility...
Identifier
30183, 1999-025UQ
Orbit
SSO
Country
Flag of CNCN / PRC
Related business
Manufacturer
Unknown
Mission
Spacecraft
Bus & Motor
Unknown
Mass
Unknown
Launch date (UTC)
1999-05-10 (27 years ago)
Launch vehicle
Unknown
Launch site
Taiyaun Space Center, China (TSC)
Object type
Payload
Rocket body
Debris
Shape & HBR
Unknown shape, 0.1 m
Radar Cross Section
Medium (>0.1 m² and <1 m²)

Expand to show TLE details & history
Last TLE update: 19 hours ago

TLE from 19 hours ago
0 FENGYUN 1C DEB
1 30183U 99025UQ  26255.05523355  .00000520  00000-0  30032-3 0  9996
2 30183  98.7601 296.7902 0026404 194.9935 194.7382 14.13120734  9974
Epoch: 2026-09-12T01:19Z
TLE epoch observation values (Epoch: 2026-09-12T01:19:32.178Z)
Latitude
29.32371°
Longitude
-79.10304°
Altitude
870.806 km
Speed
7.41 km/s
True Right ascension
19h 27m 24s
True Declination
29° 10' 46"
Sunlit
Object was in daylight at epoch
Visualization orbit readout
Latitude
Unknown
Longitude
Unknown
Altitude
Unknown
Speed
Unknown
Apparent Right ascension
Unknown
Apparent Declination
Unknown
Sunlit
N/A
Visualization observer readout
Local Sidereal Time
12:23:47
Azimuth
Unknown
Elevation
Unknown
Doppler factor
Unknown
Orbital elements
Apogee altitude
864.957 km
Perigee altitude
826.808 km
Semi-major axis
7,224.019 km
Eccentricity
0.00264
Inclination
98.7601°
RAAN
296.7902°
Arg. of periapsis
194.9935°
True anomaly
194.66147°
Mean anomaly
194.7382°
Eccentric anomaly
194.69981°
Mean motion
3.53488 °/min
Orbital period
101.84 mins
BSTAR
0.00030032
Loading maneuver chart data...
Computing Atmospheric mass density...

Documentation

Showing up to 5 results
|